TimeCDT,TemperatureF,Dew PointF,Humidity,Sea Level PressureIn,VisibilityMPH,Wind Direction,Wind SpeedMPH,Gust SpeedMPH,PrecipitationIn,Events,Conditions,WindDirDegrees,DateUTC
12:15 AM,21.2,12.2,68,30.20,10.0,NNW,12.7,-,N/A,,Clear,330,2013-03-17 05:15:00
12:35 AM,21.2,12.2,68,30.19,10.0,NNW,12.7,-,N/A,,Scattered Clouds,340,2013-03-17 05:35:00
12:55 AM,19.4,12.2,74,30.19,10.0,NNW,11.5,-,N/A,,Clear,340,2013-03-17 05:55:00
1:15 AM,19.4,12.2,74,30.19,10.0,NNW,10.4,-,N/A,,Clear,340,2013-03-17 06:15:00
1:35 AM,19.4,12.2,74,30.19,10.0,NNW,13.8,-,N/A,,Clear,340,2013-03-17 06:35:00
1:55 AM,19.4,12.2,74,30.19,10.0,NNW,9.2,-,N/A,,Clear,340,2013-03-17 06:55:00
2:15 AM,19.4,12.2,74,30.19,10.0,North,10.4,-,N/A,,Partly Cloudy,350,2013-03-17 07:15:00
2:35 AM,17.6,10.4,73,30.20,10.0,North,10.4,-,N/A,,Partly Cloudy,360,2013-03-17 07:35:00
2:55 AM,17.6,10.4,73,30.19,10.0,North,13.8,-,N/A,,Partly Cloudy,360,2013-03-17 07:55:00
3:15 AM,17.6,10.4,73,30.19,10.0,North,13.8,-,N/A,,Clear,360,2013-03-17 08:15:00
3:35 AM,17.6,10.4,73,30.17,10.0,North,13.8,-,N/A,,Clear,10,2013-03-17 08:35:00
3:55 AM,17.6,10.4,73,30.17,10.0,North,10.4,16.1,N/A,,Clear,10,2013-03-17 08:55:00
4:15 AM,15.8,8.6,73,30.16,10.0,NNE,12.7,-,N/A,,Clear,20,2013-03-17 09:15:00
4:35 AM,15.8,8.6,73,30.15,10.0,NNE,15.0,-,N/A,,Clear,30,2013-03-17 09:35:00
4:55 AM,15.8,6.8,68,30.15,10.0,NNE,16.1,-,N/A,,Clear,20,2013-03-17 09:55:00
5:15 AM,15.8,6.8,68,30.15,10.0,NNE,12.7,-,N/A,,Clear,20,2013-03-17 10:15:00
5:35 AM,14.0,6.8,73,30.15,10.0,NNE,12.7,-,N/A,,Clear,30,2013-03-17 10:35:00
5:55 AM,14.0,6.8,73,30.15,10.0,NE,11.5,-,N/A,,Clear,40,2013-03-17 10:55:00
6:15 AM,14.0,6.8,73,30.15,10.0,NE,11.5,-,N/A,,Clear,50,2013-03-17 11:15:00
6:35 AM,14.0,6.8,73,30.16,10.0,NE,11.5,-,N/A,,Clear,50,2013-03-17 11:35:00
6:55 AM,14.0,6.8,73,30.16,10.0,ENE,11.5,-,N/A,,Clear,60,2013-03-17 11:55:00
7:15 AM,14.0,6.8,73,30.17,10.0,ENE,12.7,-,N/A,,Clear,60,2013-03-17 12:15:00
7:35 AM,14.0,6.8,73,30.18,10.0,ENE,9.2,-,N/A,,Clear,60,2013-03-17 12:35:00
7:55 AM,14.0,6.8,73,30.18,10.0,ENE,9.2,-,N/A,,Clear,70,2013-03-17 12:55:00
8:15 AM,15.8,6.8,68,30.18,10.0,East,10.4,-,N/A,,Clear,80,2013-03-17 13:15:00
8:35 AM,15.8,8.6,73,30.19,10.0,East,11.5,-,N/A,,Clear,80,2013-03-17 13:35:00
8:55 AM,17.6,8.6,68,30.18,10.0,East,12.7,-,N/A,,Clear,80,2013-03-17 13:55:00
9:15 AM,17.6,8.6,68,30.18,10.0,East,12.7,-,N/A,,Clear,100,2013-03-17 14:15:00
9:35 AM,19.4,10.4,68,30.17,10.0,East,12.7,-,N/A,,Clear,100,2013-03-17 14:35:00
9:55 AM,19.4,10.4,68,30.17,10.0,East,12.7,-,N/A,,Clear,100,2013-03-17 14:55:00
10:15 AM,21.2,12.2,68,30.17,10.0,ESE,15.0,-,N/A,,Clear,110,2013-03-17 15:15:00
10:35 AM,21.2,10.4,63,30.17,10.0,ESE,18.4,-,N/A,,Clear,110,2013-03-17 15:35:00
10:55 AM,23.0,12.2,63,30.16,10.0,SE,16.1,-,N/A,,Clear,140,2013-03-17 15:55:00
11:15 AM,23.0,12.2,63,30.15,10.0,ESE,16.1,-,N/A,,Clear,120,2013-03-17 16:15:00
11:35 AM,24.8,14.0,64,30.14,10.0,ESE,13.8,21.9,N/A,,Clear,120,2013-03-17 16:35:00
11:55 AM,24.8,14.0,64,30.14,10.0,ESE,12.7,18.4,N/A,,Clear,120,2013-03-17 16:55:00
12:15 PM,24.8,15.8,69,30.13,10.0,SE,16.1,-,N/A,,Clear,140,2013-03-17 17:15:00
12:35 PM,26.6,15.8,64,30.11,10.0,SE,15.0,21.9,N/A,,Clear,130,2013-03-17 17:35:00
12:55 PM,26.6,15.8,64,30.10,10.0,ESE,12.7,21.9,N/A,,Clear,120,2013-03-17 17:55:00
1:15 PM,26.6,15.8,64,30.09,10.0,ESE,13.8,19.6,N/A,,Clear,110,2013-03-17 18:15:00
1:35 PM,28.4,17.6,64,30.08,10.0,ESE,17.3,-,N/A,,Clear,120,2013-03-17 18:35:00
1:55 PM,28.4,17.6,64,30.07,10.0,SE,13.8,20.7,N/A,,Clear,130,2013-03-17 18:55:00
2:15 PM,28.4,17.6,64,30.05,10.0,ESE,16.1,-,N/A,,Clear,120,2013-03-17 19:15:00
2:35 PM,28.4,17.6,64,30.04,10.0,SE,16.1,21.9,N/A,,Clear,130,2013-03-17 19:35:00
2:55 PM,30.2,19.4,64,30.03,10.0,ESE,17.3,25.3,N/A,,Clear,110,2013-03-17 19:55:00
3:15 PM,28.4,19.4,69,30.02,10.0,ESE,16.1,23.0,N/A,,Partly Cloudy,120,2013-03-17 20:15:00
3:35 PM,28.4,19.4,69,30.00,10.0,SE,20.7,-,N/A,,Scattered Clouds,130,2013-03-17 20:35:00
3:55 PM,30.2,21.2,69,29.99,10.0,ESE,19.6,25.3,N/A,,Mostly Cloudy,110,2013-03-17 20:55:00
4:15 PM,30.2,21.2,69,29.98,10.0,ESE,23.0,28.8,N/A,,Mostly Cloudy,120,2013-03-17 21:15:00
4:35 PM,30.2,21.2,69,29.97,10.0,ESE,23.0,-,N/A,,Mostly Cloudy,120,2013-03-17 21:35:00
4:55 PM,30.2,21.2,69,29.96,10.0,ESE,21.9,-,N/A,,Mostly Cloudy,120,2013-03-17 21:55:00
5:15 PM,30.2,23.0,75,29.96,10.0,ESE,23.0,-,N/A,,Overcast,120,2013-03-17 22:15:00
5:35 PM,32.0,23.0,69,29.96,10.0,ESE,19.6,-,N/A,,Overcast,120,2013-03-17 22:35:00
5:55 PM,30.2,23.0,75,29.96,10.0,ESE,18.4,24.2,N/A,,Overcast,120,2013-03-17 22:55:00
6:15 PM,32.0,23.0,69,29.95,10.0,ESE,16.1,-,N/A,,Overcast,110,2013-03-17 23:15:00
6:35 PM,30.2,23.0,75,29.94,10.0,ESE,15.0,23.0,N/A,,Overcast,120,2013-03-17 23:35:00
6:55 PM,30.2,23.0,75,29.94,10.0,SE,16.1,23.0,N/A,,Overcast,130,2013-03-17 23:55:00
7:15 PM,30.2,23.0,75,29.94,10.0,ESE,17.3,25.3,N/A,,Overcast,120,2013-03-18 00:15:00
7:35 PM,30.2,23.0,75,29.94,10.0,SE,17.3,23.0,N/A,,Overcast,130,2013-03-18 00:35:00
7:55 PM,30.2,23.0,75,29.93,10.0,SSE,18.4,27.6,N/A,,Overcast,150,2013-03-18 00:55:00
8:15 PM,30.2,23.0,75,29.94,10.0,ESE,21.9,29.9,N/A,,Overcast,120,2013-03-18 01:15:00
8:35 PM,30.2,23.0,75,29.93,10.0,SE,18.4,29.9,N/A,,Overcast,130,2013-03-18 01:35:00
9:15 PM,30.2,23.0,75,29.92,10.0,SE,19.6,-,N/A,,Overcast,140,2013-03-18 02:15:00
9:55 PM,30.2,23.0,75,29.92,10.0,SE,16.1,-,N/A,,Overcast,130,2013-03-18 02:55:00
10:15 PM,30.2,24.8,80,29.92,10.0,SE,16.1,-,N/A,,Overcast,140,2013-03-18 03:15:00
10:35 PM,30.2,23.0,75,29.92,10.0,SE,19.6,28.8,N/A,,Overcast,140,2013-03-18 03:35:00
10:55 PM,30.2,23.0,75,29.91,10.0,SE,15.0,23.0,N/A,,Overcast,140,2013-03-18 03:55:00
11:15 PM,30.2,24.8,80,29.89,10.0,SE,17.3,25.3,N/A,,Overcast,140,2013-03-18 04:15:00
11:35 PM,30.2,24.8,80,29.90,10.0,SE,15.0,26.5,N/A,,Overcast,140,2013-03-18 04:35:00
11:55 PM,30.2,24.8,80,29.89,10.0,SE,15.0,26.5,N/A,,Overcast,140,2013-03-18 04:55:00